Location: Bannatyne
(13.0833°N, 59.5333°W)
Time: 13:59:20
(UTC+00:00)

deb Explorer IX - Pass Details

Date: 29 January 2020
Orbit: 549 x 1099 km, 38.8° (Epoch: 22 February)

Event Time Altitude Azimuth Distance (km) Brightness Sun altitude
Rises 22:55:13 0° 267° (W) 3,275 ? -14.3°
Reaches altitude 10° 22:58:06 10° 282° (WNW) 2,447 ? -14.9°
Maximum altitude 23:02:37 22° 333° (NNW) 1,861 ? -16.0°
Drops below altitude 10° 23:07:37 10° 22° (NNE) 2,738 ? -17.2°
Enters shadow 23:07:56 - 24° (NNE) 2,825 ? -17.2°
Sets 23:11:05 0° 36° (NE) 3,770 - -18.0°
